loading
|
Showing default

SECOR 7 (EGRS 7), 2411

Orbit data source: Space-Track

SECOR 7 (EGRS 7), 2411 is an American payload satellite that was launched on Fri, 19 Aug 1966 UTC via an ATLAS SLV-3 AGENA D launch vehicle from the Air Force Western Test Range (AFWTR). Payloads include a variety of satellites, spacecraft, and rockets equipped with specific instruments for various scientific and technological missions. These include communications satellites like Starlink; space stations such as the ISS; scientific satellites like the Hubble; Earth observation satellites from companies like Planet Labs, Umbra, and HawkEye 360; GPS; miniature CubeSats for education and research; and military/defense satellites.

Loading next visibility...
Next conjunction unknown
Loading greatness...
SECOR 7 (EGRS 7) details
Identifier
2411, 1966-077B
Orbit
Active
Last TLE update16 hours ago
Origin
Flag of USACE/GIMR (US)
ManufacturerITT
MissionDefense Geodetic
Bus & MotorSECOR, Unknown motor
Mass18 kg wet, 18 kg dry
Launch date (UTC)
1966-08-19 (58 years ago)
Launch vehicle
ATLAS SLV-3 AGENA D
Launch site
Air Force Western Test Range (AFWTR)
Object type
Payload
Rocket body
Debris
Shape & HBRBox, 0.36 m
Radar Cross Section0.095 m², Medium (>0.1 m² and < 1m²)

Expand to show TLE details & history

TLE from 16 hours ago
0 SECOR 7 (EGRS 7)
1 02411U 66077B   24285.36982383  .00000027  00000-0  12525-1 0  9992
2 02411  90.3235 270.2732 0013774 319.7630  40.2201  8.59615740824633
Epoch: 2024-10-11T08:52Z
Definitive object data (Epoch: 2024-10-11T08:52:32.778Z)
Latitude-0.00008°
Longitude116.69563°
Altitude3,679.67 km
Speed6.299 km/s
True Right ascension18h 01m 05s
True Declination0° 00' 00"
Sunlit
Object was in daylight at TLE epoch
Predictive object data (real-time)
Latitude-65.67871°
Longitude117.41632°
Altitude3,700.384 km
Speed6.294 km/s
Apparent Right ascension11h 15m 58s
Apparent Declination-81° 58' 28"
Sunlit
Object is in daylight
Predictive observer data (real-time)
Local Sidereal Time19:31:27
Azimuth189.279° SSW
Elevation-44.032°
Doppler factor1
Orbital elements
Apogee3,699.745 km
Perigee3,672.021 km
Semi-major axis10,064.02 km
Eccentricity0.0013774
Inclination90.3235°
RAAN270.2732°
Arg. of periapsis319.763°
True anomaly40.32215°
Mean anomaly40.2201°
Eccentric anomaly40.27111°
Mean motion2.14974 °/min
BSTAR0.012525
Period167.46 mins
No data available

SECOR 7 (EGRS 7) Visibility forecast

Observer location: 39.9160978°, -105.1181434

Span
Click to sort rows by Start time (UTC) header in descending order
Start Az.
Max El. time (UTC)
Max El. Az.
Max El.
End time (UTC)
End Az.
31 mins2024-10-12 01:42:29.995Z231.484° WSW2024-10-12 01:58:29.995Z291.14° WNW26.664°2024-10-12 02:13:29.995Z346.445° N
18 mins2024-10-12 08:05:29.995Z28.796° NE2024-10-12 08:13:29.995Z56.267° ENE15.23°2024-10-12 08:23:29.995Z90.347° ESE
36 mins2024-10-12 10:48:29.995Z4.741° NNE2024-10-12 11:06:29.995Z100.015° ESE43.867°2024-10-12 11:24:29.995Z175.717° S
28 mins2024-10-12 13:36:29.995Z349.359° N2024-10-12 13:49:29.995Z300.904° NW28.429°2024-10-12 14:04:29.995Z244.675° WSW
30 mins2024-10-12 21:17:29.995Z121.199° SE2024-10-12 21:32:29.995Z63.5° ENE30.963°2024-10-12 21:47:29.995Z7.476° NNE
36 mins2024-10-12 23:59:29.995Z190.57° SSW2024-10-13 00:16:29.995Z265.483° W42.654°2024-10-13 00:35:29.995Z355.187° N